Retour au catalogue

SL-16 DEB

ActifLEO
NORAD 29097·DEBRIS·🇷🇺 Russia

Lancé Mar 26, 1993 depuis Baikonur Cosmodrome

Loading…

Prochains Passages (prochaines 24 heures)

TLE

VieillissantSource: Space-Track

Époque: Sep 12, 2026, 13:57 UTC

1 29097U 93016AL  26255.58180772  .00000057  00000-0  71205-4 0  9995
2 29097  71.0087 357.8750 0123507 116.1686 258.4722 13.94627140286333

Suivez SL-16 DEB en temps réel avec AllMySat

Download on the App Store